Location: Fisher's Paradise
(46.5411°N, 80.0984°W)
Time: 07:19:46
(UTC-04:00)

OTV 5 (USA 277) - Visible Passes

Search period start: 23 October 2019 00:00
Search period end: 02 November 2019 00:00
Orbit: 310 x 324 km, 54.5° (Epoch: 17 October)

Date Brightness Start Highest point End Pass type
(mag) Time Alt. Az. Time Alt. Az. Time Alt. Az.
28 Oct ? 19:10:10 10° SSE 19:11:13 12° SE 19:11:24 12° SE visible
29 Oct ? 19:23:08 10° SSW 19:25:31 27° SE 19:25:53 26° ESE visible
30 Oct ? 19:37:15 10° SW 19:39:57 70° SE 19:40:14 62° E visible
31 Oct ? 19:51:52 10° WSW 19:54:30 49° NNW 19:54:30 49° NNW visible
01 Nov ? 20:06:49 10° W 20:08:40 25° NW 20:08:40 25° NW visible
